Ashtabula, OH

9:46 PM EDT on August 17, 2019 (GMT -0400)
Ashtabula County

Weather History for KHZY - May, 2019

Change the Weather History Date:

Sunday, May 19, 2019

  Actual Average (KGKJ) Record (KGKJ)
Temperature  
Mean Temperature 72 °F -  
Max Temperature 87 °F 69 °F 90 °F (1962)
Min Temperature 59 °F 44 °F 30 °F (2002)
Cooling Degree Days 8    
Growing Degree Days 22 (Base 50)    
Moisture  
Dew Point 60 °F    
Average Humidity 72    
Maximum Humidity 96    
Minimum Humidity 34    
Precipitation  
Precipitation 0.10 in - - ()
Sea Level Pressure  
Sea Level Pressure 29.83 in    
Wind  
Wind Speed 10 mph (SSW)    
Max Wind Speed 23 mph    
Max Gust Speed 38 mph    
Visibility 9 miles    
Events Rain    
Averages and records for this station are not official NWS values.
T = Trace of Precipitation, MM = Missing Value Source: NWS Daily Summary

Daily Weather History Graph

Daily Weather History Graph

Search for Another Location

Airport or City:

Astronomy

May. 19, 2019 Rise Set
Actual Time 5:59 AM EDT 8:39 PM EDT
Civil Twilight 5:27 AM EDT 9:11 PM EDT
Nautical Twilight 4:46 AM EDT 9:52 PM EDT
Astronomical Twilight 4:01 AM EDT 10:38 PM EDT
Moon 9:38 PM EDT (5/19) 6:44 AM EDT (5/19)
Length of Visible Light 15h 44m
Length of Day
14h 40m
Full, 99% of the Moon is Illuminated
May 19
Full
May 26
Last Quarter
Jun 3
New
Jun 10
First Quarter
Jun 17
Full

Hourly Weather History & Observations

Time (EDT) Temp. Heat Index Dew Point Humidity Pressure Visibility Wind Dir Wind Speed Gust Speed Precip Events Conditions
12:53 AM 69.1 °F - 63.0 °F 81% 29.88 in 10.0 mi South 5.8 mph - N/A   Clear
1:53 AM 68.0 °F - 63.0 °F 84% 29.88 in 10.0 mi South 6.9 mph - N/A   Clear
2:53 AM 66.9 °F - 63.0 °F 87% 29.88 in 10.0 mi South 4.6 mph - N/A   Clear
3:53 AM 66.0 °F - 63.0 °F 90% 29.87 in 10.0 mi South 4.6 mph - N/A   Clear
4:53 AM 66.0 °F - 62.1 °F 87% 29.88 in 10.0 mi South 5.8 mph - N/A   Clear
5:53 AM 66.0 °F - 62.1 °F 87% 29.87 in 10.0 mi South 6.9 mph - N/A   Clear
6:53 AM 64.9 °F - 62.1 °F 90% 29.88 in 10.0 mi South 5.8 mph - N/A   Clear
7:53 AM 70.0 °F - 63.0 °F 78% 29.87 in 10.0 mi South 8.1 mph - N/A   Mostly Cloudy
8:53 AM 73.9 °F - 63.0 °F 68% 29.86 in 10.0 mi SSW 11.5 mph - N/A   Mostly Cloudy
9:53 AM 77.0 °F - 64.0 °F 64% 29.86 in 10.0 mi SW 11.5 mph 18.4 mph N/A   Scattered Clouds
10:53 AM 81.0 °F 82.7 °F 64.9 °F 58% 29.85 in 10.0 mi SSW 12.7 mph 23.0 mph N/A   Clear
11:53 AM 82.9 °F 84.0 °F 63.0 °F 51% 29.84 in 10.0 mi SSW 13.8 mph 26.5 mph N/A   Partly Cloudy
12:53 PM 84.9 °F 84.2 °F 57.9 °F 40% 29.82 in 10.0 mi SSW 20.7 mph 31.1 mph N/A   Partly Cloudy
1:53 PM 86.0 °F 84.5 °F 55.0 °F 35% 29.80 in 10.0 mi SW 23.0 mph 34.5 mph N/A   Partly Cloudy
2:53 PM 86.0 °F 84.7 °F 55.9 °F 36% 29.77 in 10.0 mi SW 16.1 mph 28.8 mph N/A   Scattered Clouds
3:53 PM 82.9 °F 81.9 °F 54.0 °F 37% 29.75 in 10.0 mi SSW 21.9 mph 34.5 mph N/A   Scattered Clouds
4:53 PM 82.9 °F - 52.0 °F 34% 29.74 in 10.0 mi SW 17.3 mph 32.2 mph N/A   Partly Cloudy
5:53 PM 80.1 °F 80.1 °F 55.0 °F 42% 29.77 in 10.0 mi WSW 19.6 mph 28.8 mph N/A   Overcast
6:53 PM 69.1 °F - 57.0 °F 65% 29.83 in 8.0 mi WNW 23.0 mph 38.0 mph 0.00 in Rain Light Rain
7:32 PM 60.1 °F - 59.0 °F 96% 29.86 in 10.0 mi WNW 10.4 mph 20.7 mph 0.02 in   Overcast
7:53 PM 60.1 °F - 59.0 °F 96% 29.87 in 4.0 mi WNW 11.5 mph 21.9 mph 0.05 in Rain Rain
7:56 PM 60.1 °F - 59.0 °F 96% 29.88 in 2.5 mi West 9.2 mph 19.6 mph 0.02 in Rain Rain
8:53 PM 59.0 °F - 57.0 °F 93% 29.83 in 10.0 mi SSE 4.6 mph - 0.04 in Rain Light Rain
9:53 PM 59.0 °F - 57.9 °F 96% 29.81 in 10.0 mi SSE 10.4 mph - 0.01 in   Scattered Clouds
10:53 PM 61.0 °F - 59.0 °F 93% 29.78 in 10.0 mi South 6.9 mph - N/A   Clear
11:53 PM 62.1 °F - 59.0 °F 90% 29.76 in 10.0 mi South 11.5 mph - N/A   Clear